SPOT 7

Last updated on Wed May 14 2025 00:02:27 GMT+0000 (Coordinated Universal Time)

1 40053U 14034A 25133.61413054 .00000590 00000+0 13135-3 0 9991 2 40053 98.1130 200.2962 0001549 87.1240 273.0138 14.60427392578808
UTC large
Height (km)
Speed (km/s)
/
Latitude / Longitude
Inclination (degrees)
Orbital Period (minutes)
Azimuth
Elevation
Range (km)
Doppler Factor

Next 0 passes for location: London (51.5072 / 0.1276)

Sorry there are no passes over London.